Find S5

NORAD ID: 44065 Int'l Des: 2019-009 Owner: AFRL Country: US operational
HEOCIRCULAR

Live Position

Loading 3D Globe...

About S5

Description loading...

Upcoming Passes

Passes for default location (London). Set your location on the main map for personalized predictions.

Altitude History

Loading altitude history...

Two-Line Element Set

1 44065U 19009D 26103.95962622 .00000115 00000-0 00000+0 0 9997
2 44065 6.4005 71.5904 0002396 169.1132 5.2825 0.99334444 25802
Epoch: Apr 13, 2026 • Age: 10 hours

Current Status

Altitude 36061.0 km
Velocity 3.06 km/s
Sub-Earth Point -3.29°S, 57.08°E
Launch Date Feb 22, 2019
Age 7.1 years
Type other

Technical Details

Classification Payload
Mass 61.00 kg
Dry Mass 55.00 kg
Total Mass 61.00 kg
Length 0.50 m
Diameter 0.50 m
Span 0.50 m
Shape Box+cyl+panel
Manufacturer BLCAN
Bus Type Podsat
Phase Status In Orbit
Owner/State AFRL/US

Most Searched